User: anonymous   Login
Location: Unspecified
(0.0000°N, 0.0000°E)
Time: 22:08:29
(UTC+00:00)
Language:

RS-4 - Orbit

View from above orbital plane
View from above orbital plane
View from above satellite
View from above satellite

Ground track
Ground track

The orbit data is extracted from the following two-line orbital elements,

1 12998U 81120B   21066.45617230  .00000005  00000-0 -54736-4 0  9999
2 12998  82.9537  84.6981 0020317 103.9184 325.8182 12.03160426722577
Epoch (UTC): 07 March 2021 10:56:53
Eccentricity: 0.0020317
inclination: 82.9537°
perigee height: 1650 km
apogee height: 1683 km
right ascension of ascending node: 84.6981°
argument of perigee: 103.9184°
revolutions per day: 12.03160426
mean anomaly at epoch: 325.8182°
orbit number at epoch: 72257

The dashed part of the orbit path shows where the satellite is in the earth's shadow,  

DLR